Pottstown, PA

12:15 AM EDT on July 24, 2017 (GMT -0400)
Pottstown Limerick

Weather History for KPTW - February, 2013

Change the Weather History Date:

Monday, February 25, 2013

  Actual Average (KRDG) Record (KRDG)
Temperature  
Mean Temperature 36 °F -  
Max Temperature 45 °F 42 °F 77 °F (1985)
Min Temperature 27 °F 26 °F 2 °F (1914)
Degree Days  
Heating Degree Days 28    
Moisture  
Dew Point 23 °F    
Average Humidity 62    
Maximum Humidity 81    
Minimum Humidity 46    
Precipitation  
Precipitation 0.00 in - - ()
Sea Level Pressure  
Sea Level Pressure 30.16 in    
Wind  
Wind Speed 5 mph (NNW)    
Max Wind Speed 12 mph    
Max Gust Speed 20 mph    
Visibility 10 miles    
Events      
Averages and records for this station are not official NWS values.
T = Trace of Precipitation, MM = Missing Value Source: NWS Daily Summary

Daily Weather History Graph

Daily Weather History Graph

Search for Another Location

Airport or City:

Trip Planner

Search our weather history database for the weather conditions in past years. The results will help you decide how hot, cold, wet, or windy it might be!

Date:

Astronomy

Feb. 25, 2013 Rise Set
Actual Time 6:41 AM EST 5:49 PM EST
Civil Twilight 6:13 AM EST 6:17 PM EST
Nautical Twilight 5:42 AM EST 6:48 PM EST
Astronomical Twilight 5:11 AM EST 7:20 PM EST
Moon 6:00 PM EST (2/25) 6:10 AM EST (2/25)
Length of Visible Light 12h 03m
Length of Day
11h 08m
Full, 100% of the Moon is Illuminated
Feb 25
Full
Feb 25
Full
Mar 4
Last Quarter
Mar 11
New
Mar 19
First Quarter

Hourly Weather History & Observations

Time (EST) Temp. Windchill Dew Point Humidity Pressure Visibility Wind Dir Wind Speed Gust Speed Precip Events Conditions
12:54 AM 32.0 °F 28.7 °F 19.9 °F 61% 30.06 in 10.0 mi West 3.5 mph - N/A   Mostly Cloudy
1:54 AM 32.0 °F 26.4 °F 21.0 °F 64% 30.08 in 10.0 mi WNW 5.8 mph - N/A   Overcast
2:54 AM 30.9 °F 24.3 °F 19.9 °F 64% 30.07 in 10.0 mi NW 6.9 mph - N/A   Clear
3:54 AM 28.9 °F 23.9 °F 19.9 °F 69% 30.08 in 10.0 mi WNW 4.6 mph - N/A   Clear
4:54 AM 28.0 °F 24.2 °F 19.9 °F 72% 30.10 in 10.0 mi West 3.5 mph - N/A   Clear
5:54 AM 28.9 °F 23.9 °F 19.9 °F 69% 30.11 in 10.0 mi WNW 4.6 mph - N/A   Clear
6:54 AM 28.9 °F 23.9 °F 21.0 °F 72% 30.14 in 10.0 mi WNW 4.6 mph - N/A   Partly Cloudy
7:54 AM 33.1 °F 27.7 °F 21.9 °F 64% 30.15 in 10.0 mi West 5.8 mph - N/A   Clear
8:54 AM 37.9 °F 30.9 °F 24.1 °F 57% 30.16 in 10.0 mi NW 10.4 mph - N/A   Scattered Clouds
9:01 AM 37.4 °F 29.8 °F 24.8 °F 60% 30.16 in 10.0 mi NW 11.5 mph 17.3 mph N/A   Mostly Cloudy
9:08 AM 37.4 °F 30.8 °F 24.8 °F 60% 30.16 in 10.0 mi NW 9.2 mph - N/A   Scattered Clouds
9:54 AM 39.0 °F 32.3 °F 26.1 °F 60% 30.16 in 10.0 mi North 10.4 mph 19.6 mph N/A   Clear
10:54 AM 41.0 °F 35.8 °F 26.1 °F 55% 30.17 in 10.0 mi NNW 8.1 mph - N/A   Partly Cloudy
11:54 AM 42.1 °F 37.1 °F 27.0 °F 55% 30.19 in 10.0 mi North 8.1 mph - N/A   Mostly Cloudy
12:54 PM 43.0 °F 37.2 °F 26.1 °F 51% 30.17 in 10.0 mi North 10.4 mph - N/A   Overcast
1:54 PM 43.0 °F 39.5 °F 26.1 °F 51% 30.17 in 10.0 mi NE 5.8 mph - N/A   Mostly Cloudy
2:54 PM 45.0 °F 41.8 °F 26.1 °F 48% 30.16 in 10.0 mi Variable 5.8 mph - N/A   Overcast
3:54 PM 45.0 °F 40.6 °F 25.0 °F 46% 30.17 in 10.0 mi North 8.1 mph - N/A   Mostly Cloudy
4:54 PM 42.1 °F 37.7 °F 25.0 °F 51% 30.18 in 10.0 mi NE 6.9 mph - N/A   Clear
5:54 PM 39.9 °F 37.8 °F 24.1 °F 53% 30.19 in 10.0 mi NNE 3.5 mph - N/A   Mostly Cloudy
6:54 PM 36.0 °F 33.3 °F 24.1 °F 62% 30.22 in 10.0 mi NNE 3.5 mph - N/A   Clear
7:54 PM 35.1 °F 32.2 °F 23.0 °F 61% 30.23 in 10.0 mi NE 3.5 mph - N/A   Clear
8:54 PM 32.0 °F - 23.0 °F 69% 30.24 in 10.0 mi Calm Calm - N/A   Clear
9:54 PM 30.0 °F - 23.0 °F 75% 30.24 in 10.0 mi Calm Calm - N/A   Clear
10:54 PM 28.0 °F - 21.9 °F 78% 30.23 in 10.0 mi Calm Calm - N/A   Clear
11:54 PM 27.0 °F - 21.9 °F 81% 30.22 in 10.0 mi Calm Calm - N/A   Clear